Погода в Медвежьегорске

Погода в Медвежьегорске : погода сейчас, прогноз погоды и архив. Всё, что Вы хотите узнать о погоде в Медвежьегорске!

Хотите узнать прогноз погоды в Медвежьегорске? Тогда Вам сюда: Погода в Медвежьегорске

Поиск расширенной информации на нашем сайте:

Другие новости

Новости СМИ2

Главная страница сайта

Новости сайта

03.07.2017

Напоминаем, что на нашем специализированном сайте Метеоцентр.Азия вы можете получить высокодетализированные автоматические прогнозы погоды по пунктам России, СНГ и мира в авиационном формате (включающие направление и скорость ветра, видимость, явления погоды, количество и форму облачности, нижнюю и верхнюю границу облачности).


Погода в Медвежьегорске - сегодня

Время (UTC), дата Ветер
(°,м/с) 
Видим.   Явления Облачность Т
(°С)
Тd
(°С)
f(%) Тe
(°С)
Pmin
(гПа)
dP
(гПа)
Po
(мм)
O2
(г/м3)
Тmin Tmax R s Состояние
почвы
18 24.07.17 320 (СЗ) 20000 м  слаб. ливневой дождь  10/10 360 м кучево-дожд. 
[Cb cap]
+12.6 +11 90 +16  1012  0.3  752  287    +20.1  0.0     
21 24.07.17 330 (СЗ) 10 км    10/10 270 м кучево-дожд. 
[Cb cap]
+11.9 +10.9 94 +15  1011.4  -0.6  751  288           
00 25.07.17 010 (С) 11000 м    10/10 300 м 
[Frnb]
+12.1 +11 93 +15  1010.9  -0.5  751  288           
03 25.07.17 310 (СЗ) 6000 м  слаб. ливневой дождь  10/10 360 м кучево-дожд. 
[Cb cap]
+11.8 +11.2 96 +16  1010.3  -0.6  750  288  +11.7    0.4     
06 25.07.17 тихо ()   4000 м  слаб. дождь{ливн. осадки}  10/10 330 м 
[Frnb|Ns]
+11.9 +11.4 97 +15  1010.1  -0.2  750  288  +11.6      влажная 
09 25.07.17 320 (СЗ) 6000 м  ливневой дождь  10/10 210 м кучево-дожд. 
[Cb cap]
+12.1 +11.7 97 +16  1010.1  750  287           
12 25.07.17 050 (СВ) 20000 м  {ливн. осадки, дождь}  10/10 210 м 
[Frnb]
+13.5 +12.5 94 +20  1010.5  0.4  751  286           
15 25.07.17 340 (С) 20000 м    10/10 240 м 
[St]
+13.8 +12.7 93 +20  1010.6  0.2  751  285      15     
18 25.07.17 310 (СЗ) 20000 м    10/10 300 м 
[St]
+13.6 +12.7 94 +20  1010.7  0.1  751  286    +14.2  14     
21 25.07.17 тихо ()   10 км  слаб. ливневой дождь  10/10 240 м кучево-дожд. 
[Cb cap]
+12.9 +12.5 97 +18  1010.7  751  286           
00 26.07.17 тихо ()   1000 м  слаб. ливневой дождь  10/10 240 м кучево-дожд. 
[Cb cap]
+12.6 +12.3 98 +17  1010.7  751  287           
03 26.07.17 тихо ()   6000 м  слаб. ливневой дождь  10/10 240 м кучево-дожд. 
[Cb cap]
+12.5 +12.2 98 +17  1010.4  -0.3  751  287  +12.4       
06 26.07.17 310 (СЗ) 40000 м  {ливн. осадки}  10/10 300 м кучево-дожд. 
[Cb cap]
+13.5 +13.2 98 +21  1009.5  -0.9  750  285  +12.4    10    влажная 
09 26.07.17 290 (З) 30000 м  в посл. час ливневой дождь  10/10 420 м кучево-дожд. 
[Cb cap]
+14.6 +13.9 96 +23  1009.4  0.1  750  284           
12 26.07.17 тихо ()   20000 м  {ливн. осадки}  10/10 300 м 
[Frnb]
+15.5 +14.2 92 +23  1009.3  0.1  750  283           
15 26.07.17 тихо ()   20000 м    10/10 450 м кучево-дожд. 
[Cb cap]
+15.8 +14.5 92 +24  1008.3  -0.9  749  282         
18 26.07.17 300 (СЗ) 20000 м    10/9 800 м верхняя 
[Sc|Ci fib]
+15.6 +14.7 94 +25  1007.3  -1  748  282    +16.2     
21 26.07.17 тихо ()   10 км    10/10 180 м 
[Frnb]
+15.4 +14.7 96 +24  1006.5  -0.9  748  282           
00 27.07.17 310 (СЗ) 2000 м  ливневой дождь  10/10 210 м кучево-дожд. 
[Cb cap]
+14.9 +14.2 96 +23  1005.4  -1.1  747  282           
03 27.07.17 310 (СЗ) 19000 м  в посл. час ливневой дождь  10/10 180 м кучево-дожд. 
[Cb cap]
+14.1 +13.6 97 +21  1004.4  -1  746  283  +14.1       
06 27.07.17 320 (СЗ) 10 км  {ливн. осадки}  10/10 270 м 
[St]
+14.6 +13.9 96 +22  1004.6  0.3  746  283  +13.8      влажная 
09 27.07.17 320 (СЗ) 13000 м    10/8 700 м кучево-дожд., верхняя 
[Cb cap|Cs]
+18.4 +15.2 82 +28  1004  -0.4  746  278           
12 27.07.17 320 (СЗ) 23000 м    8/8 1000 м 
[Sc diur, vesp]
+21.6 +15.3 67 +31  1004.3  0.4  746  275           
15 27.07.17 310 (СЗ) 35000 м    10/8 1000 м верхняя 
[Sc diur, vesp|Ci fib]
+21 +14.7 67 +29  1004.7  0.4  746  276           
18 27.07.17 тихо ()   40000 м    8/0 верхняя 
[Cs]
+18.2 +14.8 81 +27  1005.7  0.9  747  279    +22.1       
Время (UTC), дата Ветер
(°,м/с) 
Видим.   Явления Облачность Т
(°С)
Тd
(°С)
f(%) Тe
(°С)
Pmin
(гПа)
dP
(гПа)
Po
(мм)
O2
(г/м3)
Тmin Tmax R s Состояние
почвы

Для получения пояснительной информации подведите курсор к названию столбца.

ПОГОДА в Медвежьегорске - архив

Всё, что Вы хотите узнать о погоде в Медвежьегорске - удобно и подробно!

Выберите нужную дату (начиная с 1 января 2015* года) и нажмите кнопку "Найти".
Будут отображены архивные сводки погоды по пункту Медвежьегорск, начиная с указанной даты.


Отображать данные в формате CSV (для использования в таблицах Excel)


Внимание! Наш архив погоды предназначен исключительно для личного некоммерческого использования в познавательных целях. Если Вам необходимы официальные справки о состоянии погоды (для производственных, юридических, коммерческих и т.п. целей), обращайтесь в органы Росгидромета.

*Примечание: данная дата относится к архиву по метеостанциям СССР (Россия, СНГ, Балтия).
Архив по метеостанциям Зарубежной Европы и Азии (кроме Китая) хранится 10 дней, по другим регионам земного шара (Китай, Африка, Америка, Австралия, Океания) - 1 день.

Медвежьегорск - район местоположения метеостанции


Название, широта, долгота, высота метеостанции:
Медвежьегорск 62.9°ш. 34.4°д. 81 м над ур. моря [Российская Федерация]

Дополнительная информация

В oтличие oт бoльшинства пoгoдных сайтoв мы публикуем пoдрoбную метеoинфoрмацию в детальнoм прoфессиoнальнoм фoрмате.

Характеристики температуры и влажнoсти вoздуха измеряются на высoте 2 м в тени вдали oт зданий и деревьев.
Скoрoсть ветра измеряется на высoте 10 м (на урoвне рoста челoвека скoрoсть ветра ниже в 1.5-2 раза). Если метеoстанция нахoдится в гoрoде или в лесу, тo скoрoсть ветра занижена на 2-4 м/с пo сравнению с oткрытым местoм. Скoрoсть ветра над акватoриями крупных рек и oзёр, а также на вершинах хoлмoв на 2-5 м/с выше, чем в oбычных услoвиях.
Атмoсфернoе давление в разных тoчках местнoсти мoжет значительнo oтличаться oт давления на метеoстанции, в зависимoсти oт услoвий рельефа (при пoдъёме на 10 м давление пoнижается примернo на 1 мм рт.ст.).